Hourly Weather Działoszyn

Today, 10 May, Monday

Time Temperature Precipitation Wind Pressure Humidity
00:00 +11°C° 0 mm 4 mps 744 mmHg 76%
01:00 +10°C° 0 mm 3 mps 743 mmHg 80%
02:00 +10°C° 0 mm 3 mps 743 mmHg 81%
03:00 +10°C° 0 mm 4 mps 743 mmHg 82%
04:00 +8°C° 0 mm 4 mps 743 mmHg 82%
05:00 +11°C° 0 mm 4 mps 743 mmHg 77%
06:00 +13°C° 0 mm 4 mps 743 mmHg 71%
07:00 +14°C° 0 mm 4 mps 743 mmHg 65%
08:00 +17°C° 0 mm 4 mps 743 mmHg 59%
09:00 +19°C° 0 mm 5 mps 743 mmHg 53%
10:00 +21°C° 0 mm 5 mps 743 mmHg 47%
11:00 +22°C° 0 mm 5 mps 743 mmHg 45%
12:00 +23°C° 0 mm 5 mps 743 mmHg 43%
13:00 +24°C° 0 mm 6 mps 742 mmHg 41%
14:00 +25°C° 0 mm 5 mps 742 mmHg 44%
15:00 +25°C° 0 mm 5 mps 742 mmHg 47%
16:00 +26°C° 0 mm 5 mps 742 mmHg 49%
17:00 +22°C° 0 mm 4 mps 742 mmHg 58%
18:00 +20°C° 0 mm 3 mps 742 mmHg 66%
19:00 +18°C° 0 mm 2 mps 743 mmHg 75%
20:00 +17°C° 0 mm 3 mps 743 mmHg 77%
21:00 +16°C° 0 mm 3 mps 743 mmHg 80%
22:00 +14°C° 0 mm 3 mps 743 mmHg 82%
23:00 +14°C° 0 mm 3 mps 742 mmHg 84%

Tomorrow, 11 May, Tuesday

Time Temperature Precipitation Wind Pressure Humidity
00:00 +14°C° 0 mm 3 mps 742 mmHg 85%
01:00 +13°C° 0 mm 3 mps 742 mmHg 87%
02:00 +13°C° 0 mm 4 mps 742 mmHg 85%
03:00 +13°C° 0 mm 4 mps 741 mmHg 84%
04:00 +12°C° 0 mm 4 mps 741 mmHg 83%
05:00 +14°C° 0 mm 5 mps 741 mmHg 79%
06:00 +15°C° 0 mm 5 mps 740 mmHg 75%
07:00 +17°C° 0 mm 5 mps 740 mmHg 70%
08:00 +20°C° 0 mm 6 mps 740 mmHg 65%
09:00 +21°C° 0 mm 6 mps 740 mmHg 59%
10:00 +23°C° 0 mm 6 mps 740 mmHg 53%
11:00 +24°C° 0 mm 6 mps 740 mmHg 51%
12:00 +26°C° 0 mm 6 mps 740 mmHg 48%
13:00 +27°C° 0 mm 6 mps 740 mmHg 46%
14:00 +27°C° 0 mm 6 mps 739 mmHg 49%
15:00 +27°C° 0 mm 6 mps 739 mmHg 52%
16:00 +27°C° 0 mm 6 mps 739 mmHg 55%
17:00 +24°C° 0 mm 6 mps 739 mmHg 61%
18:00 +22°C° 0 mm 6 mps 739 mmHg 68%
19:00 +20°C° 0 mm 6 mps 739 mmHg 74%
20:00 +19°C° 0 mm 6 mps 739 mmHg 76%
21:00 +17°C° 0 mm 6 mps 739 mmHg 78%
22:00 +15°C° 0 mm 5 mps 739 mmHg 79%
23:00 +15°C° 0 mm 5 mps 739 mmHg 80%

Day after tomorrow, 12 May, Wednesday

Time Temperature Precipitation Wind Pressure Humidity
00:00 +14°C° 0 mm 5 mps 739 mmHg 81%
01:00 +13°C° 0 mm 4 mps 738 mmHg 81%
02:00 +12°C° 0 mm 5 mps 738 mmHg 81%
03:00 +12°C° 0 mm 5 mps 738 mmHg 80%
04:00 +10°C° 0 mm 5 mps 738 mmHg 79%
05:00 +12°C° 0 mm 5 mps 738 mmHg 76%
06:00 +13°C° 0 mm 5 mps 738 mmHg 73%
07:00 +14°C° 0 mm 6 mps 737 mmHg 70%
08:00 +16°C° 0 mm 6 mps 737 mmHg 66%
09:00 +19°C° 0 mm 6 mps 737 mmHg 63%
10:00 +20°C° 0 mm 7 mps 737 mmHg 60%
11:00 +21°C° 0 mm 7 mps 737 mmHg 58%
12:00 +22°C° 0 mm 8 mps 736 mmHg 56%
13:00 +23°C° 0 mm 8 mps 736 mmHg 55%
14:00 +22°C° 0 mm 8 mps 736 mmHg 59%
15:00 +21°C° 0 mm 9 mps 736 mmHg 62%
16:00 +19°C° 0 mm 9 mps 736 mmHg 66%
17:00 +18°C° 0 mm 9 mps 735 mmHg 68%
18:00 +16°C° 0 mm 8 mps 735 mmHg 69%
19:00 +13°C° 0 mm 8 mps 735 mmHg 71%
20:00 +14°C° 0 mm 7 mps 735 mmHg 70%
21:00 +12°C° 0 mm 7 mps 735 mmHg 70%
22:00 +11°C° 0 mm 7 mps 735 mmHg 70%
23:00 +10°C° 0 mm 6 mps 735 mmHg 72%

13 May, Thursday

Time Temperature Precipitation Wind Pressure Humidity
00:00 +9°C° 0 mm 6 mps 734 mmHg 75%
01:00 +9°C° 0 mm 5 mps 734 mmHg 78%
02:00 +8°C° 0 mm 4 mps 734 mmHg 80%
03:00 +7°C° 0 mm 4 mps 734 mmHg 83%
04:00 +7°C° 0 mm 4 mps 734 mmHg 85%
05:00 +8°C° 0 mm 3 mps 733 mmHg 83%
06:00 +9°C° 0 mm 3 mps 733 mmHg 81%
07:00 +10°C° 0 mm 3 mps 733 mmHg 80%
08:00 +10°C° 0.1 mm 3 mps 733 mmHg 81%
09:00 +12°C° 0.1 mm 2 mps 733 mmHg 83%
10:00 +12°C° 0.1 mm 2 mps 733 mmHg 84%
11:00 +13°C° 0.5 mm 2 mps 733 mmHg 83%
12:00 +13°C° 0.5 mm 2 mps 733 mmHg 82%
13:00 +14°C° 0.5 mm 2 mps 733 mmHg 82%
14:00 +15°C° 0.2 mm 2 mps 733 mmHg 79%
15:00 +14°C° 0.2 mm 3 mps 733 mmHg 76%
16:00 +16°C° 0.2 mm 3 mps 733 mmHg 73%
17:00 +14°C° 0 mm 3 mps 734 mmHg 75%
18:00 +13°C° 0 mm 4 mps 734 mmHg 77%
19:00 +12°C° 0 mm 4 mps 734 mmHg 78%
20:00 +11°C° 0 mm 4 mps 734 mmHg 81%
21:00 +10°C° 0 mm 4 mps 734 mmHg 83%
22:00 +8°C° 0 mm 4 mps 735 mmHg 86%
23:00 +8°C° 0 mm 4 mps 735 mmHg 86%

14 May, Friday

Time Temperature Precipitation Wind Pressure Humidity
00:00 +8°C° 0 mm 4 mps 735 mmHg 87%
01:00 +8°C° 0 mm 4 mps 735 mmHg 88%
02:00 +8°C° 0 mm 4 mps 735 mmHg 87%
03:00 +8°C° 0 mm 4 mps 735 mmHg 86%
04:00 +8°C° 0 mm 4 mps 735 mmHg 85%
05:00 +8°C° 0 mm 4 mps 735 mmHg 85%
06:00 +10°C° 0 mm 4 mps 735 mmHg 84%
07:00 +10°C° 0 mm 4 mps 736 mmHg 83%
08:00 +11°C° 0 mm 4 mps 736 mmHg 81%
09:00 +11°C° 0 mm 4 mps 736 mmHg 80%
10:00 +12°C° 0 mm 4 mps 737 mmHg 78%
11:00 +12°C° 0 mm 4 mps 737 mmHg 79%
12:00 +12°C° 0 mm 5 mps 737 mmHg 80%
13:00 +12°C° 0 mm 5 mps 737 mmHg 81%
14:00 +12°C° 0 mm 4 mps 738 mmHg 83%
15:00 +11°C° 0 mm 4 mps 738 mmHg 85%
16:00 +11°C° 0 mm 4 mps 738 mmHg 87%
17:00 +11°C° 0.1 mm 4 mps 738 mmHg 90%
18:00 +11°C° 0.1 mm 4 mps 739 mmHg 92%
19:00 +10°C° 0.1 mm 4 mps 739 mmHg 95%
20:00 +10°C° 0 mm 4 mps 739 mmHg 95%
21:00 +10°C° 0 mm 3 mps 739 mmHg 95%
22:00 +10°C° 0 mm 3 mps 740 mmHg 96%
23:00 +10°C° 0.1 mm 3 mps 740 mmHg 96%

15 May, Saturday

Time Temperature Precipitation Wind Pressure Humidity
00:00 +10°C° 0.1 mm 3 mps 740 mmHg 96%
01:00 +10°C° 0.1 mm 3 mps 740 mmHg 96%
02:00 +10°C° 0.1 mm 3 mps 740 mmHg 96%
03:00 +10°C° 0.1 mm 2 mps 741 mmHg 96%
04:00 +10°C° 0.1 mm 2 mps 741 mmHg 96%
05:00 +10°C° 0 mm 2 mps 741 mmHg 92%
06:00 +12°C° 0 mm 2 mps 741 mmHg 88%
07:00 +13°C° 0 mm 2 mps 741 mmHg 84%
08:00 +14°C° 0.3 mm 2 mps 741 mmHg 81%
09:00 +14°C° 0.3 mm 2 mps 742 mmHg 78%
10:00 +15°C° 0.3 mm 2 mps 742 mmHg 74%
11:00 +16°C° 0.3 mm 2 mps 742 mmHg 70%
12:00 +17°C° 0.3 mm 2 mps 742 mmHg 66%
13:00 +17°C° 0.3 mm 2 mps 742 mmHg 63%
14:00 +17°C° 0.2 mm 2 mps 742 mmHg 62%
15:00 +18°C° 0.2 mm 2 mps 742 mmHg 62%
16:00 +18°C° 0.2 mm 2 mps 742 mmHg 61%
17:00 +17°C° 0 mm 2 mps 741 mmHg 66%
18:00 +16°C° 0 mm 1 mps 741 mmHg 71%
19:00 +14°C° 0 mm 1 mps 741 mmHg 76%
20:00 +14°C° 0 mm 1 mps 741 mmHg 79%
21:00 +13°C° 0 mm 1 mps 742 mmHg 82%
22:00 +12°C° 0 mm 1 mps 742 mmHg 84%
23:00 +12°C° 0 mm 1 mps 742 mmHg 86%
Show more